Regional Weather Roundup
Issued by NWS

Home | Current Version | Previous Version | Text Only | Print | Product List | Glossary Off
Versions: 1 2 3 4 5 6 7 8 9 10 11 12 13 14 15 16 17 18 19 20 21 22 23 24 25 26 27 28 29 30 31 32 33 34 35 36 37 38 39 40 41 42 43 44 45 46 47 48 49 50

000
ASUS45 KCYS 191610
RWRWY

WYOMING REGIONAL WEATHER ROUNDUP
NATIONAL WEATHER SERVICE CHEYENNE WY
1000 AM MDT FRI SEP 19 2014

NOTE:  "FAIR" INDICATES FEW OR NO CLOUDS BELOW 12,000 FEET
WITH NO SIGNIFICANT WEATHER AND/OR OBSTRUCTIONS TO VISIBILITY.

WYZ001-191700-
YELLOWSTONE NATIONAL PARK

CITY           SKY/WX    TMP DP  RH WIND       PRES   REMARKS
LK YELLOWSTONE   N/A     51  48  89 CALM      30.21S
W YELLOWSTONE  NOT AVBL

$$
WYZ002>013-054>058-071-098>099-191700-
NORTHERN WYOMING

CITY           SKY/WX    TMP DP  RH WIND       PRES   REMARKS
JACKSON        CLOUDY    50  50 100 CALM      30.18R
CODY             N/A    N/A N/A N/A MISG        N/A
GREYBULL       SUNNY     65  58  78 SE7       29.94S
WORLAND        SUNNY     67  54  63 VRB3      29.96S
SHERIDAN       SUNNY     68  55  63 CALM      29.91S
BUFFALO        MOSUNNY   67  49  52 SE3       29.96S
GILLETTE       MOSUNNY   71  52  50 NW10      29.93R
HULETT         FAIR      70  52  52 MISG      29.92
NEWCASTLE      FAIR      70  48  46 NW7       29.92

$$
WYZ014>020-022>026-101>103-191700-
CENTRAL WYOMING

CITY           SKY/WX    TMP DP  RH WIND       PRES   REMARKS
BIG PINEY      SUNNY     56  48  74 SE6       30.20R
PINEDALE       SUNNY     55  48  76 CALM      30.21R
DUBOIS         FAIR      61  39  44 N13G24    30.14R
LANDER         PTSUNNY   63  45  51 CALM      30.04R
RIVERTON       PTSUNNY   64  47  53 SW6       30.03S
CASPER         MOSUNNY   71  49  45 SW14      30.01R
DOUGLAS        PTSUNNY   69  49  48 W9        29.99R

$$
WYZ021-027>030-104>119-191700-
SOUTHERN WYOMING

CITY           SKY/WX    TMP DP  RH WIND       PRES   REMARKS
EVANSTON       SUNNY     61  49  64 N3        30.21R
KEMMERER       SUNNY     57  50  77 S3        30.22R
FORT BRIDGER   FAIR      62  54  75 W6        30.22R
ROCK SPRINGS   MOSUNNY   60  48  64 W7        30.18R
DIXON          FAIR      66  44  45 E8        30.19S
RAWLINS        MOSUNNY   62  46  55 W13G25    30.15R
SARATOGA       FAIR      68  43  40 S10       30.18F
LARAMIE        MOSUNNY   67  41  38 SW14      30.16F
CHEYENNE       SUNNY     75  42  30 NW13G21   30.07R
TORRINGTON     MOSUNNY   69  51  52 W5        29.93S
PINE BLUFFS    FAIR      72  43  35 NW3       30.01F

$$



USA.gov is the U.S. government's official web portal to all federal, state and local government web resources and services.